Date String (YYYY-MM-DD hh:mm:ss) UTC,Instrument flags,absolute air pressure of the measurement (hPa),sample flow rate (lpm),inlet stack bypass flow (lpm),air temperature of the measurement (°C),ambient temperature measured by the external sensor (°C),aerosol sample conditioner tube jacket temperature (°C),OPC LED temperature (°C),internal box temperature (°C),relative humidity of the measurement (%),span deviation,mass concentration of particles derived from Lorenz-Mie calculation of OPC scattering (μg/m³),mass concentration of particles derived from Lorenz-Mie calculation of OPC scattering (μg/m³),mass concentration of particles derived from Lorenz-Mie calculation of OPC scattering (μg/m³)
DateTimeUTC,F1_M11,P_M11,Q1_M11,Q2_M11,T1_M11,T2_M11,T3_M11,T4_M11,T5_M11,U1_M11,ZSPAN_M11,X2_M11,X0_M11,X1_M11
2023-06-28 18:00:00,SystemResetWarning,0829.6,5.01,000.00,030.7,026.9,000.0,038.7,031.3,34.7,0003.5,0011.41,0025.58,0009.41
2023-06-28 18:01:00,SystemResetWarning,0829.5,4.96,000.00,030.7,027.2,000.0,038.8,031.3,35.0,0003.2,0011.41,0023.99,0009.46
2023-06-28 18:02:00,SystemResetWarning,0829.5,5.04,000.00,030.9,027.5,000.0,038.8,031.4,35.2,0003.1,0011.48,0023.66,0009.51
2023-06-28 18:03:00,SystemResetWarning,0829.6,4.95,000.00,031.1,027.0,000.0,038.8,031.6,34.7,0003.0,0011.47,0023.78,0009.53
2023-06-28 18:04:00,SystemResetWarning,0829.5,5.04,000.00,031.2,025.4,000.0,038.7,031.5,34.0,0003.0,0011.48,0024.72,0009.54
2023-06-28 18:05:00,SystemResetWarning,0829.4,4.95,000.00,031.3,024.8,000.0,038.8,031.5,34.9,0002.9,0011.47,0026.25,0009.53
2023-06-28 18:06:00,SystemResetWarning,0829.4,5.05,000.00,031.4,024.9,000.0,038.8,031.2,34.0,0002.7,0011.47,0027.15,0009.50
2023-06-28 18:07:00,SystemResetWarning,0829.4,4.97,000.00,031.3,025.3,000.0,038.8,031.0,32.7,0002.3,0011.42,0025.68,0009.47
2023-06-28 18:08:00,SystemResetWarning,0829.4,5.02,000.00,031.3,025.8,000.0,038.9,031.1,32.7,0002.1,0011.42,0024.58,0009.42
2023-06-28 18:09:00,SystemResetWarning,0829.4,5.00,000.00,031.3,026.3,000.0,039.0,031.2,33.2,0002.4,0011.36,0024.37,0009.36
2023-06-28 18:10:00,SystemResetWarning,0829.5,5.00,000.00,031.3,026.7,000.0,039.0,031.2,32.5,0002.4,0011.30,0025.58,0009.29
2023-06-28 18:11:00,SystemResetWarning,0829.5,4.99,000.00,031.3,027.1,000.0,039.1,031.3,32.4,0002.6,0011.22,0025.63,0009.23
2023-06-28 18:12:00,SystemResetWarning,0829.5,5.00,000.00,031.3,027.4,000.0,039.1,031.3,32.3,0003.0,0011.19,0025.97,0009.17
2023-06-28 18:13:00,SystemResetWarning,0829.4,4.99,000.00,031.3,027.6,000.0,039.2,031.4,32.9,0003.2,0011.10,0026.38,0009.12
2023-06-28 18:14:00,SystemResetWarning,0829.4,5.00,000.00,031.3,027.5,000.0,039.2,031.5,32.6,0003.4,0011.02,0025.45,0009.06
2023-06-28 18:15:00,SystemResetWarning,0829.4,5.00,000.00,031.3,025.9,000.0,039.1,031.4,33.2,0003.7,0010.95,0025.32,0009.00
2023-06-28 18:16:00,SystemResetWarning,0829.4,5.01,000.00,031.2,024.9,000.0,039.1,031.4,32.6,0003.8,0010.84,0023.60,0008.94
2023-06-28 18:17:00,SystemResetWarning,0829.4,5.01,000.00,031.2,024.9,000.0,039.0,031.2,32.1,0003.8,0010.77,0022.44,0008.91
2023-06-28 18:18:00,SystemResetWarning,0829.3,5.01,000.00,031.0,025.3,000.0,039.1,031.0,32.5,0004.0,0010.74,0023.61,0008.87
2023-06-28 18:19:00,SystemResetWarning,0829.3,4.99,000.00,030.9,025.8,000.0,039.1,031.0,33.0,0004.0,0010.66,0023.79,0008.86
2023-06-28 18:20:00,SystemResetWarning,0829.3,5.00,000.00,030.8,026.2,000.0,039.0,031.0,33.4,0003.8,0010.58,0023.49,0008.83
2023-06-28 18:21:00,SystemResetWarning,0829.3,5.01,000.00,030.8,026.6,000.0,039.0,031.1,33.2,0003.9,0010.59,0022.89,0008.85
2023-06-28 18:22:00,SystemResetWarning,0829.3,4.99,000.00,030.8,027.0,000.0,039.0,031.2,33.6,0004.0,0010.61,0022.74,0008.87
2023-06-28 18:23:00,SystemResetWarning,0829.4,5.00,000.00,030.8,027.3,000.0,039.0,031.2,34.2,0003.8,0010.67,0023.11,0008.89
2023-06-28 18:24:00,SystemResetWarning,0829.4,4.99,000.00,030.8,027.6,000.0,039.0,031.3,34.3,0003.5,0010.70,0022.84,0008.90
2023-06-28 18:25:00,SystemResetWarning,0829.4,4.99,000.00,030.7,027.8,000.0,039.0,031.3,33.9,0003.0,0010.74,0023.15,0008.92
2023-06-28 18:26:00,SystemResetWarning,0829.4,5.00,000.00,030.8,027.2,000.0,039.0,031.5,33.7,0002.6,0010.77,0022.81,0008.96
2023-06-28 18:27:00,SystemResetWarning,0829.4,5.00,000.00,030.8,025.5,000.0,038.9,031.3,33.5,0002.4,0010.81,0023.43,0009.00
2023-06-28 18:28:00,SystemResetWarning,0829.3,5.01,000.00,030.7,024.8,000.0,038.8,031.3,33.5,0002.1,0010.82,0024.70,0009.04
2023-06-28 18:29:00,SystemResetWarning,0829.4,5.00,000.00,030.6,024.9,000.0,038.8,031.1,34.2,0002.2,0010.82,0023.34,0009.08
2023-06-28 18:30:00,SystemResetWarning,0829.4,4.99,000.00,030.5,025.3,000.0,038.8,030.8,35.4,0002.6,0010.92,0023.15,0009.11
2023-06-28 18:31:00,SystemResetWarning,0829.3,5.03,000.00,030.6,025.8,000.0,038.8,031.0,34.1,0003.0,0011.02,0022.95,0009.13
2023-06-28 18:32:00,SystemResetWarning,0829.4,4.97,000.00,030.7,026.3,000.0,038.8,031.1,34.0,0002.8,0011.00,0022.37,0009.14
2023-06-28 18:33:00,SystemResetWarning,0829.3,5.01,000.00,030.8,026.7,000.0,038.8,031.2,35.1,0002.7,0010.99,0023.19,0009.15
2023-06-28 18:34:00,SystemResetWarning,0829.3,5.03,000.00,031.0,027.1,000.0,038.8,031.4,34.9,0002.7,0010.99,0023.29,0009.18
2023-06-28 18:35:00,SystemResetWarning,0829.3,4.98,000.00,031.2,027.4,000.0,038.9,031.5,32.2,0002.9,0011.05,0023.85,0009.19
2023-06-28 18:36:00,SystemResetWarning,0829.3,5.00,000.00,031.3,027.6,000.0,038.9,031.5,32.4,0003.2,0011.04,0023.67,0009.21
2023-06-28 18:37:00,SystemResetWarning,0829.3,5.00,000.00,031.4,027.8,000.0,039.0,031.6,32.5,0003.4,0011.04,0023.38,0009.19
2023-06-28 18:38:00,SystemResetWarning,0829.3,4.99,000.00,031.5,026.7,000.0,039.0,031.7,32.3,0003.3,0011.06,0024.11,0009.19
2023-06-28 18:39:00,SystemResetWarning,0829.2,5.00,000.00,031.5,025.2,000.0,039.0,031.5,32.8,0003.4,0011.02,0023.09,0009.18
2023-06-28 18:40:00,SystemResetWarning,0829.2,5.01,000.00,031.5,024.8,000.0,039.0,031.5,32.8,0003.5,0011.02,0022.99,0009.16
2023-06-28 18:41:00,SystemResetWarning,0829.2,5.01,000.00,031.4,025.0,000.0,039.0,031.1,32.4,0003.2,0011.00,0023.11,0009.12
2023-06-28 18:42:00,SystemResetWarning,0829.2,5.00,000.00,031.2,025.5,000.0,039.1,031.0,31.5,0003.0,0010.96,0023.79,0009.11
2023-06-28 18:43:00,SystemResetWarning,0829.2,5.00,000.00,031.2,026.0,000.0,039.1,031.0,32.3,0003.2,0010.98,0024.45,0009.10
2023-06-28 18:44:00,SystemResetWarning,0829.2,5.00,000.00,031.1,026.4,000.0,039.1,031.1,32.9,0003.1,0010.97,0023.53,0009.07
2023-06-28 18:45:00,SystemResetWarning,0829.1,5.00,000.00,031.1,026.8,000.0,039.2,031.2,32.5,0003.3,0010.99,0023.54,0009.05
2023-06-28 18:46:00,SystemResetWarning,0829.2,4.99,000.00,031.1,027.2,000.0,039.2,031.3,32.6,0003.5,0010.85,0022.78,0009.02
2023-06-28 18:47:00,SystemResetWarning,0829.2,5.00,000.00,031.1,027.5,000.0,039.2,031.4,33.2,0003.6,0010.76,0023.02,0009.00
2023-06-28 18:48:00,SystemResetWarning,0829.2,5.01,000.00,031.1,027.7,000.0,039.2,031.4,33.7,0003.8,0010.71,0022.69,0009.00
2023-06-28 18:49:00,SystemResetWarning,0829.2,5.00,000.00,031.1,027.0,000.0,039.2,031.4,34.0,0003.8,0010.69,0021.91,0008.99
2023-06-28 18:50:00,SystemResetWarning,0829.2,4.99,000.00,031.0,025.4,000.0,039.1,031.3,32.9,0003.8,0010.67,0022.11,0008.96
2023-06-28 18:51:00,SystemResetWarning,0829.2,5.03,000.00,031.0,024.8,000.0,039.0,031.4,32.7,0003.6,0010.72,0022.39,0008.95
2023-06-28 18:52:00,SystemResetWarning,0829.2,5.00,000.00,030.9,025.0,000.0,039.0,031.1,33.2,0003.5,0010.72,0022.45,0008.96
2023-06-28 18:53:00,SystemResetWarning,0829.2,5.00,000.00,030.7,025.4,000.0,039.0,031.0,34.7,0003.8,0010.71,0022.25,0008.95
2023-06-28 18:54:00,SystemResetWarning,0829.2,4.99,000.00,030.7,025.9,000.0,039.0,031.0,34.4,0003.9,0010.68,0021.23,0008.94
2023-06-28 18:55:00,SystemResetWarning,0829.2,5.01,000.00,030.7,026.4,000.0,039.0,031.0,32.2,0003.8,0010.66,0021.46,0008.94
2023-06-28 18:56:00,SystemResetWarning,0829.2,5.00,000.00,030.6,026.8,000.0,038.9,031.1,32.3,0003.6,0010.59,0021.20,0008.93
2023-06-28 18:57:00,SystemResetWarning,0829.2,5.00,000.00,030.6,027.1,000.0,038.9,031.2,32.8,0003.5,0010.63,0022.36,0008.92
2023-06-28 18:58:00,SystemResetWarning,0829.2,5.00,000.00,030.6,027.4,000.0,038.9,031.3,33.1,0003.5,0010.66,0023.68,0008.91
2023-06-28 18:59:00,SystemResetWarning,0829.2,5.00,000.00,030.6,027.7,000.0,038.9,031.3,33.3,0003.2,0010.68,0024.83,0008.88
